Temp
17 18 18 21 19 18 18 18 19 20 20 17 19 19 20 20 19 18 18 17 16 15 14 13 11 10 9 9 8 9 9 10 12 13 13 14 15 15 15 16 16 16 18 19
17 17 19 17 16 17 17 17 19 19 18 17 18 19 20 19 18 18 17 16 15 14 12 10 9 7 6 5 4 5 6 7 9 13 14 14 15 15 15 15 16 16 17 18
18 18 16 16 16 16 17 17 17 16 17 18 18 20 19 19 19 17 16 14 13 11 9 8 6 5 3 2 3 3 3 4 7 10 14 14 15 16 15 15 15 15 15 16
18 16 15 15 16 15 17 15 14 15 16 18 19 17 20 19 18 17 15 13 10 7 7 6 5 3 2 1 0 -0 1 2 5 10 11 14 15 16 16 14 14 15 14 15
17 15 14 15 16 14 16 14 14 15 15 16 18 17 20 20 16 15 13 10 7 7 5 4 3 2 1 -1 -1 -1 1 2 3 8 10 14 14 16 16 15 14 15 14 14
17 15 16 16 14 13 14 14 16 16 15 15 18 16 18 17 14 13 10 7 7 6 4 3 2 1 -0 -2 -2 -1 1 3 4 7 10 14 14 15 16 15 14 14 14 14
14 14 14 13 14 13 13 15 16 15 15 17 17 15 17 16 14 13 10 8 7 5 4 3 2 -0 -1 -2 -3 -1 1 4 6 9 11 13 13 14 16 15 14 15 14 14
14 12 13 13 14 15 14 14 15 13 16 17 18 15 17 16 14 12 10 7 6 5 3 2 1 -1 -2 -3 -3 -1 -1 2 4 8 12 13 13 14 15 15 13 14 14 14
15 15 14 13 13 14 13 13 14 10 13 12 16 17 18 16 14 12 9 7 5 4 3 2 -0 -2 -3 -3 -3 -2 -2 0 2 5 10 12 13 13 15 14 14 14 15 14
15 12 12 11 12 12 13 14 11 12 11 13 16 16 16 13 12 11 9 7 4 4 2 1 -1 -3 -3 -4 -3 -1 -2 -1 1 4 10 12 13 14 15 14 15 14 16 16
14 13 12 10 11 12 10 11 11 12 13 12 13 15 13 12 11 9 7 5 4 3 2 1 -1 -2 -4 -3 -3 -1 -2 -1 1 4 7 10 13 14 15 15 15 12 13 14
13 12 11 11 12 13 13 11 11 10 12 12 12 12 15 13 10 8 6 5 4 3 2 0 -2 -3 -4 -2 -2 -1 -2 -2 -1 2 6 8 10 11 15 14 14 14 14 14
11 12 11 10 10 10 10 11 12 11 10 9 10 13 15 14 9 7 5 4 4 3 2 -1 -3 -3 -3 -2 -3 -2 -2 -2 -1 0 5 7 9 11 12 13 14 14 13 14
10 11 10 12 12 11 9 11 12 10 8 10 12 13 14 11 7 6 4 3 4 3 1 -1 -3 -3 -3 -2 -4 -2 -2 -1 -1 0 3 6 8 8 9 11 11 12 13 12
11 9 10 11 11 11 11 11 11 8 8 7 10 10 12 8 6 4 3 3 3 2 1 -1 -3 -4 -4 -3 -3 -2 -2 -2 -2 1 2 4 5 7 8 10 10 10 11 11
9 10 10 9 11 11 10 10 10 9 9 10 10 11 8 6 5 4 2 2 2 1 0 -1 -3 -4 -4 -4 -4 -4 -4 -2 -2 -1 1 2 4 5 6 7 9 8 10 11
9 9 9 10 10 10 8 9 9 6 8 8 7 7 6 5 4 3 1 2 1 1 -0 -1 -2 -3 -4 -5 -5 -5 -4 -3 -3 -1 1 2 2 2 3 5 8 7 8 9
9 9 10 10 9 6 10 10 11 9 7 8 8 6 4 3 3 1 1 1 0 0 -1 -1 -2 -3 -4 -5 -5 -5 -5 -5 -4 -1 -1 1 3 -0 0 3 8 4 8 8
10 10 8 8 8 9 8 8 9 9 9 10 6 4 4 3 3 1 1 0 -0 -0 -1 -2 -2 -2 -4 -5 -5 -5 -5 -5 -5 -5 -4 -1 -1 -2 0 4 2 2 4 5
9 9 8 8 8 8 9 9 8 9 7 7 5 4 3 3 6 6 -0 -0 -0 -1 -1 -2 -2 -3 -4 -5 -5 -5 -5 -5 -6 -5 -5 -5 -3 -1 -0 0 0 1 1 2
6 7 7 8 8 9 9 7 7 6 6 5 2 3 3 1 1 -1 -1 -1 -1 -2 -2 -3 -3 -3 -4 -5 -5 -5 -5 -6 -6 -5 -5 -5 -4 -3 -2 -1 1 2 1 2
6 6 6 8 7 7 7 7 7 6 5 4 3 2 1 1 -1 -1 -0 -1 -1 -2 -3 -4 -3 -4 -5 -6 -6 -6 -6 -6 -6 -5 -5 -5 -6 -4 -3 -1 -1 -1 -0 1
7 8 8 8 8 7 7 7 5 5 5 4 3 2 -1 -2 -2 -1 -1 -1 -2 -3 -4 -4 -4 -4 -5 -6 -7 -7 -7 -7 -6 -6 -6 -6 -6 -5 -3 -3 -2 -1 -1 -1
8 8 8 7 7 7 6 5 5 4 4 3 2 1 -1 -2 -3 -2 -2 -2 -3 -4 -5 -5 -6 -6 -6 -7 -7 -7 -8 -7 -6 -6 -6 -6 -6 -6 -5 -5 -4 -2 -1 -2
7 7 6 7 7 6 5 5 4 3 2 1 0 0 -1 -2 -3 -3 -3 -4 -5 -5 -6 -7 -7 -8 -8 -8 -8 -8 -8 -8 -7 -7 -7 -7 -7 -7 -7 -6 -6 -6 -5 -4
6 4 5 6 7 6 5 4 3 2 1 -0 -0 -1 -2 -4 -4 -4 -5 -6 -7 -7 -8 -8 -9 -9 -9 -9 -9 -9 -9 -9 -9 -8 -7 -7 -7 -7 -8 -8 -7 -7 -7 -5
Height
1502 1497 1490 1480 1488 1494 1494 1492 1490 1484 1486 1497 1487 1486 1480 1482 1485 1487 1488 1490 1492 1493 1493 1491 1488 1484 1479 1473 1467 1457 1452 1447 1450 1447 1445 1445 1443 1444 1445 1448 1450 1453 1455 1463
1500 1494 1483 1493 1498 1498 1495 1494 1488 1487 1490 1494 1486 1480 1473 1480 1484 1486 1490 1493 1493 1492 1492 1492 1488 1481 1473 1463 1456 1449 1442 1437 1434 1437 1434 1435 1434 1434 1435 1438 1439 1443 1445 1451
1490 1486 1492 1495 1499 1497 1490 1494 1492 1498 1492 1484 1481 1466 1471 1476 1479 1485 1491 1495 1494 1493 1493 1489 1483 1475 1465 1457 1449 1441 1432 1424 1422 1419 1423 1424 1424 1425 1423 1427 1431 1433 1437 1442
1487 1491 1497 1497 1496 1499 1490 1496 1501 1496 1491 1481 1477 1480 1459 1463 1473 1483 1491 1495 1496 1497 1492 1486 1478 1468 1459 1449 1442 1432 1421 1413 1408 1408 1409 1410 1410 1412 1414 1418 1422 1423 1427 1431
1485 1493 1497 1495 1493 1500 1491 1501 1499 1496 1491 1484 1470 1480 1452 1457 1474 1487 1494 1499 1500 1494 1490 1479 1472 1466 1459 1446 1436 1422 1412 1403 1396 1394 1394 1398 1398 1401 1403 1409 1413 1414 1416 1423
1483 1492 1493 1490 1499 1501 1500 1497 1489 1486 1486 1482 1459 1475 1459 1465 1483 1489 1497 1500 1495 1491 1486 1479 1473 1464 1454 1440 1429 1416 1402 1390 1382 1380 1381 1384 1388 1390 1391 1396 1402 1402 1405 1414
1491 1493 1494 1498 1496 1500 1498 1490 1479 1480 1477 1468 1467 1476 1465 1468 1481 1489 1495 1495 1492 1489 1483 1474 1467 1456 1444 1430 1419 1405 1390 1377 1371 1367 1369 1373 1378 1379 1381 1384 1393 1398 1396 1408
1482 1493 1490 1493 1489 1484 1490 1489 1480 1486 1468 1460 1458 1469 1459 1470 1479 1485 1491 1493 1491 1484 1479 1472 1465 1455 1443 1427 1415 1400 1387 1373 1365 1360 1362 1367 1371 1373 1375 1377 1383 1393 1396 1391
1468 1473 1485 1491 1493 1492 1491 1493 1489 1498 1481 1484 1458 1456 1454 1467 1476 1482 1486 1487 1487 1482 1478 1472 1463 1453 1439 1427 1413 1400 1385 1374 1365 1359 1357 1360 1364 1367 1370 1373 1377 1384 1388 1397
1465 1481 1486 1493 1495 1495 1489 1489 1497 1492 1490 1473 1450 1451 1451 1470 1478 1482 1488 1488 1486 1482 1477 1469 1461 1449 1437 1427 1414 1400 1387 1377 1367 1358 1352 1353 1357 1362 1363 1365 1369 1374 1374 1375
1469 1471 1484 1494 1488 1482 1494 1492 1493 1487 1479 1477 1468 1455 1469 1475 1482 1489 1493 1491 1488 1482 1475 1468 1460 1447 1437 1427 1413 1402 1387 1375 1365 1358 1354 1349 1350 1352 1355 1363 1365 1348 1378 1386
1472 1473 1481 1484 1478 1479 1479 1485 1486 1488 1478 1480 1479 1472 1465 1474 1484 1490 1492 1489 1486 1482 1475 1468 1460 1447 1435 1424 1409 1400 1388 1377 1369 1362 1355 1350 1348 1347 1344 1351 1362 1336 1372 1375
1474 1469 1473 1485 1489 1485 1482 1482 1484 1484 1489 1487 1483 1465 1463 1464 1480 1487 1488 1487 1485 1481 1475 1467 1457 1446 1434 1424 1411 1403 1394 1385 1376 1368 1361 1354 1352 1350 1349 1347 1352 1361 1361 1357
1472 1466 1468 1463 1457 1465 1479 1475 1479 1487 1490 1477 1468 1462 1461 1472 1485 1489 1490 1489 1485 1480 1475 1469 1459 1448 1437 1428 1419 1410 1399 1391 1382 1375 1367 1360 1357 1357 1357 1356 1356 1355 1358 1367
1470 1470 1472 1469 1464 1463 1467 1471 1476 1485 1486 1488 1474 1474 1470 1484 1490 1493 1492 1489 1485 1480 1475 1469 1460 1451 1442 1432 1423 1415 1404 1399 1390 1382 1375 1368 1364 1363 1362 1363 1361 1361 1365 1368
1472 1465 1469 1473 1468 1465 1466 1471 1477 1480 1480 1478 1475 1471 1485 1488 1490 1491 1491 1489 1486 1480 1476 1471 1463 1455 1446 1439 1430 1422 1416 1405 1398 1391 1384 1378 1373 1369 1368 1370 1367 1368 1369 1369
1468 1468 1470 1463 1463 1465 1471 1469 1472 1482 1481 1484 1483 1482 1487 1489 1490 1490 1491 1489 1486 1482 1477 1471 1465 1458 1450 1443 1436 1428 1419 1412 1406 1395 1389 1385 1382 1376 1374 1374 1371 1371 1372 1372
1464 1466 1465 1459 1466 1475 1459 1462 1460 1468 1480 1480 1482 1487 1493 1492 1490 1490 1489 1489 1485 1481 1477 1473 1467 1460 1453 1446 1439 1433 1425 1418 1411 1401 1394 1388 1385 1385 1382 1376 1367 1376 1372 1374
1462 1462 1465 1461 1461 1457 1465 1465 1463 1463 1470 1472 1485 1491 1490 1490 1487 1488 1488 1488 1485 1481 1477 1473 1469 1464 1456 1448 1442 1438 1432 1423 1416 1409 1403 1397 1396 1389 1382 1373 1381 1377 1373 1375
1463 1463 1462 1461 1458 1458 1452 1461 1470 1470 1472 1476 1486 1488 1491 1490 1479 1478 1486 1486 1483 1480 1476 1472 1468 1464 1460 1453 1446 1440 1435 1429 1421 1413 1409 1407 1401 1393 1387 1386 1384 1380 1376 1372
1463 1464 1462 1456 1458 1454 1459 1470 1472 1472 1476 1482 1487 1488 1490 1492 1492 1489 1487 1485 1482 1479 1474 1471 1468 1464 1459 1452 1446 1441 1435 1429 1424 1419 1414 1408 1402 1398 1395 1390 1385 1381 1381 1377
1454 1460 1461 1455 1456 1457 1465 1471 1469 1475 1478 1482 1485 1488 1489 1490 1490 1488 1487 1484 1481 1477 1473 1470 1467 1463 1458 1453 1446 1441 1435 1429 1425 1420 1414 1409 1407 1402 1397 1393 1391 1388 1388 1385
1450 1448 1449 1453 1450 1462 1466 1468 1474 1476 1477 1482 1485 1487 1489 1490 1489 1488 1486 1484 1481 1477 1473 1470 1467 1464 1460 1454 1448 1443 1438 1433 1427 1423 1418 1414 1410 1405 1401 1398 1394 1393 1390 1387
1446 1449 1448 1455 1462 1464 1469 1472 1475 1477 1480 1483 1485 1487 1489 1488 1488 1487 1486 1483 1481 1478 1473 1469 1467 1464 1461 1456 1451 1445 1440 1436 1432 1427 1422 1419 1414 1410 1406 1401 1398 1396 1391 1388
1448 1451 1453 1454 1461 1466 1470 1473 1476 1480 1482 1484 1486 1487 1487 1487 1487 1487 1485 1483 1481 1478 1474 1471 1468 1464 1460 1457 1453 1448 1442 1437 1433 1431 1427 1422 1419 1416 1412 1408 1404 1399 1397 1395
1449 1454 1455 1453 1457 1463 1469 1474 1478 1480 1483 1485 1486 1487 1487 1487 1487 1486 1484 1482 1480 1477 1473 1470 1466 1462 1460 1456 1453 1450 1446 1442 1436 1432 1428 1426 1424 1421 1418 1415 1412 1409 1406 1403
Wind_Speed
12 9 12 9 3 7 6 8 12 11 8 9 10 16 15 11 3 5 8 16 18 21 25 27 31 34 37 37 37 42 41 36 37 40 39 44 40 45 44 43 43 42 44 45
6 13 3 5 3 5 6 10 13 8 2 12 12 19 12 5 0 4 14 18 23 24 27 30 33 37 36 39 37 38 42 39 36 40 43 40 45 44 47 46 46 46 50 46
16 9 10 7 7 8 10 7 7 10 14 18 10 10 13 11 6 9 16 23 25 28 32 35 37 38 39 41 38 40 41 40 40 35 41 41 42 43 47 48 47 47 50 46
13 11 8 8 10 5 11 5 6 11 10 9 8 6 8 8 4 12 19 24 26 30 32 35 37 41 41 43 40 41 40 40 41 40 36 45 41 45 46 46 48 46 49 46
6 11 12 13 7 4 3 3 9 12 13 13 16 7 8 10 6 12 22 25 24 27 31 36 38 39 38 38 42 41 39 39 38 39 39 46 43 43 44 47 49 46 45 47
9 7 10 7 6 6 3 10 14 10 8 9 13 3 5 5 9 13 19 23 25 28 32 34 35 37 40 40 41 43 34 35 35 34 38 41 45 42 42 43 44 45 41 47
9 13 7 7 10 7 9 10 6 9 7 7 8 5 9 8 10 13 16 23 27 29 32 37 40 41 45 49 50 45 34 34 27 26 34 42 41 53 39 45 46 47 40 35
13 9 16 13 9 2 5 7 5 5 8 9 8 6 4 9 9 16 19 22 26 31 34 37 40 41 45 49 50 43 36 32 23 21 31 37 41 45 40 38 43 50 48 20
13 8 10 8 6 8 8 6 5 2 10 5 7 7 7 8 12 20 25 26 30 32 33 36 40 41 45 50 49 42 41 32 28 21 18 33 36 40 38 42 43 46 53 55
6 5 12 8 7 5 6 7 3 5 4 6 6 7 0 11 14 19 22 27 29 32 33 36 38 43 45 49 48 42 42 37 30 21 5 16 32 34 40 40 45 39 48 55
9 6 11 7 12 11 6 8 6 4 4 4 5 1 5 7 11 15 20 23 26 31 32 35 37 45 44 49 49 45 44 40 33 26 16 6 17 29 37 34 33 49 48 46
11 7 12 16 6 7 13 10 10 4 7 6 7 10 7 9 11 17 20 23 26 29 31 32 35 43 46 49 50 48 46 43 37 31 22 15 7 12 23 27 25 12 30 27
12 7 11 6 4 7 9 10 12 8 4 10 8 5 13 17 18 21 23 25 27 29 30 33 41 44 46 47 49 48 46 44 39 34 25 23 17 6 4 7 15 17 15 15
8 7 5 8 3 11 11 16 15 11 5 9 12 15 11 16 15 19 22 22 26 27 29 31 39 42 41 42 45 45 45 42 42 37 29 23 19 15 13 10 2 3 11 15
6 7 8 4 4 6 11 12 16 12 13 10 12 17 13 10 11 16 17 21 24 26 29 31 34 39 38 39 41 41 42 39 38 36 31 26 19 15 11 7 5 7 6 10
5 3 8 9 8 7 9 11 13 16 15 16 18 17 8 11 14 17 15 20 24 24 26 27 29 33 36 37 37 36 37 36 35 31 31 27 20 17 13 7 3 3 1 3
10 7 8 9 7 7 9 17 16 7 11 12 13 9 13 13 14 16 11 18 21 22 23 25 27 28 29 33 32 35 36 31 31 29 26 27 23 22 17 8 2 5 5 7
12 11 5 5 7 8 2 3 12 16 9 12 10 5 9 13 16 5 8 16 19 21 22 22 23 25 25 27 28 29 33 29 27 27 27 24 21 25 19 12 4 7 3 6
11 9 5 6 11 4 3 5 5 9 9 9 5 4 7 12 18 6 10 15 17 18 19 19 20 20 23 24 24 23 25 27 27 27 27 25 20 23 22 18 11 11 6 5
8 9 7 8 10 7 8 12 5 3 8 9 5 2 5 10 6 5 18 16 17 16 17 19 19 19 20 22 22 22 23 23 26 27 25 22 22 20 20 18 16 14 15 11
10 10 11 8 8 3 9 11 7 5 4 7 6 1 2 3 6 12 14 15 15 16 17 17 17 19 21 22 22 22 23 25 25 23 22 22 23 22 19 17 16 14 13 10
10 10 8 11 10 11 14 10 5 6 7 6 4 1 2 4 6 9 12 14 15 16 17 17 17 18 20 21 22 22 24 26 24 23 23 23 22 22 21 19 16 16 14 12
7 5 7 6 4 12 15 7 7 5 4 5 2 2 2 3 5 9 11 12 13 15 16 16 16 16 18 20 22 22 23 24 24 22 21 21 21 22 21 20 19 16 15 18
3 7 4 6 8 11 9 8 6 6 5 5 3 2 1 4 5 8 10 11 12 13 15 16 16 16 17 19 20 21 22 22 20 20 20 18 20 20 22 23 20 19 19 19
4 9 6 5 9 9 8 6 7 7 5 5 3 2 4 5 5 7 9 10 11 12 13 14 15 15 16 17 17 19 21 22 20 17 18 18 18 17 18 20 24 24 22 21
8 4 6 3 12 3 12 9 7 7 5 3 1 2 5 4 6 7 8 7 9 11 13 13 14 15 16 17 17 18 18 18 19 18 16 18 16 17 15 13 16 20 23 19
Wind_Direction
209 232 223 261 78 343 313 290 279 278 11 306 308 302 302 302 288 356 349 357 349 337 334 334 335 326 317 309 305 299 300 291 281 265 256 245 246 234 224 217 213 224 228 216
200 235 188 95 162 248 260 274 277 307 268 315 295 293 290 122 224 18 8 350 341 336 340 332 329 325 323 317 311 304 300 294 285 269 254 247 239 242 229 219 213 215 229 217
243 45 122 174 197 237 244 271 307 300 310 282 266 265 164 175 144 33 4 351 343 355 339 335 333 332 326 323 316 308 302 295 285 273 254 247 247 240 230 223 214 210 221 223
244 136 191 200 227 238 265 127 283 293 304 299 341 285 255 142 103 23 360 355 355 340 340 336 335 335 330 324 315 311 304 296 286 261 268 241 239 234 233 227 218 209 214 223
229 184 203 215 213 197 29 296 285 286 281 285 274 230 145 157 39 4 7 358 347 342 342 343 339 333 327 325 321 321 306 296 290 266 260 238 240 234 228 232 227 214 210 213
253 193 209 233 151 222 313 266 253 261 252 250 236 218 292 21 20 4 360 351 346 347 343 344 337 331 333 338 328 329 317 307 292 271 261 234 232 232 218 217 226 221 207 211
186 198 170 180 202 193 232 249 253 224 197 253 119 251 250 89 36 24 4 352 349 346 341 344 340 340 339 347 340 338 332 320 302 274 257 228 231 231 227 216 221 221 207 207
196 191 193 189 231 224 200 279 285 267 285 306 316 261 112 99 43 20 4 357 349 347 344 342 341 341 340 349 342 344 346 344 319 312 240 231 231 232 237 216 216 214 216 229
192 178 135 178 169 210 151 230 51 271 235 251 241 207 233 82 16 6 0 353 348 348 343 339 340 343 347 348 350 351 355 353 359 323 260 232 231 226 228 220 214 229 219 222
225 146 187 158 201 190 251 123 198 190 252 260 261 287 235 13 0 7 355 355 348 343 342 340 340 344 350 350 357 356 3 1 4 10 255 241 224 228 220 223 223 217 217 204
188 198 171 155 209 182 170 201 223 293 262 281 293 112 100 26 10 5 352 354 347 345 343 340 340 348 350 354 2 1 9 10 17 27 43 136 207 227 221 224 225 240 215 207
184 225 172 212 139 277 199 201 207 234 182 226 296 294 90 71 37 12 355 354 347 345 343 340 341 349 356 357 5 3 10 13 19 21 32 52 128 185 215 218 221 261 207 193
181 202 163 183 197 212 225 216 213 221 260 256 269 257 202 39 27 9 358 353 347 345 346 342 343 353 358 359 4 2 8 13 15 17 24 45 55 118 135 225 232 220 218 222
180 201 226 231 95 140 196 208 207 191 228 249 246 282 314 15 6 354 353 347 346 347 347 344 344 352 357 358 360 1 5 9 15 18 20 36 47 47 56 77 123 231 224 227
206 202 206 216 162 164 183 201 214 212 223 262 288 311 325 14 6 347 343 338 347 349 349 347 346 348 355 355 357 2 4 3 11 17 17 24 32 30 17 34 83 94 172 176
214 192 200 219 219 207 218 214 218 226 239 252 262 272 21 347 342 344 343 338 344 349 349 347 345 347 350 352 355 356 358 3 6 14 17 22 27 33 26 344 322 325 75 146
179 184 200 231 200 212 245 234 225 206 226 242 261 315 337 331 332 343 340 338 340 345 349 349 347 348 347 346 351 351 354 1 3 11 17 18 16 27 28 13 347 48 260 240
189 198 194 205 158 217 113 301 223 203 209 239 265 312 308 306 311 327 346 340 340 345 347 351 350 347 347 346 348 351 349 1 5 12 16 17 8 12 17 30 17 15 151 182
203 188 190 211 209 140 176 204 164 189 219 202 214 244 287 308 298 164 358 345 341 344 346 347 349 350 348 348 350 353 351 355 6 11 17 18 6 5 23 33 26 35 57 131
199 209 213 200 230 222 80 123 128 135 245 149 164 275 314 317 314 13 344 336 336 343 349 349 350 352 353 352 353 356 356 359 2 8 10 8 13 15 24 30 29 33 40 54
180 192 209 207 220 138 141 141 155 213 97 130 135 164 304 311 304 315 324 327 333 341 349 353 355 354 354 357 0 1 358 0 358 0 6 10 15 20 24 31 33 35 32 40
173 183 200 223 219 232 141 153 226 94 123 132 138 127 321 316 311 319 321 327 333 341 350 355 357 357 355 358 359 359 360 356 357 0 4 9 12 18 23 30 42 54 51 52
186 210 176 217 216 121 161 102 121 109 121 125 124 76 356 319 320 325 324 329 335 341 348 354 357 358 356 0 1 359 356 358 356 359 4 5 9 14 21 27 35 41 52 49
174 146 179 148 153 139 138 129 129 121 127 135 109 87 9 331 323 326 326 330 338 343 349 353 355 359 359 360 360 359 355 359 359 0 3 8 7 10 17 27 28 30 33 37
156 184 152 132 147 126 166 159 151 138 134 133 104 47 12 348 329 326 326 331 339 345 349 353 353 355 357 358 3 360 360 1 0 3 4 15 8 13 11 16 25 30 29 28
162 180 175 172 137 161 138 149 158 152 138 127 128 8 1 1 339 328 328 327 339 344 348 351 352 354 353 357 1 3 5 8 3 5 12 7 12 16 18 28 16 31 35 32